| time (UTC) | temp C | wind direction | speed KPH | gust KPH | rain 1hr cm | rain 24hr cm | rain mn cm | humidity % | barometer mb |
| 20260906230053 | 36 | 67 | 4.8 | 16.1 | 0.00 | 0.00 | 0.00 | 41 | 1012.1 |
| 20260906225528 | 36 | 41 | 8.0 | 19.3 | 0.00 | 0.00 | 0.00 | 40 | 1012.1 |
| 20260906225027 | 36 | 153 | 3.2 | 19.3 | 0.00 | 0.00 | 0.00 | 40 | 1012.1 |
| 20260906224548 | 36 | 79 | 4.8 | 20.9 | 0.00 | 0.00 | 0.00 | 40 | 1012.1 |
| 20260906224028 | 36 | 59 | 4.8 | 20.9 | 0.00 | 0.00 | 0.00 | 40 | 1012.1 |
| 20260906223530 | 36 | 129 | 8.0 | 20.9 | 0.00 | 0.00 | 0.00 | 40 | 1012.1 |
| 20260906223047 | 36 | 173 | 3.2 | 12.9 | 0.00 | 0.00 | 0.00 | 41 | 1012.1 |
| 20260906222528 | 36 | 132 | 3.2 | 22.5 | 0.00 | 0.00 | 0.00 | 40 | 1012.2 |
| 20260906222030 | 36 | 64 | 11.3 | 22.5 | 0.00 | 0.00 | 0.00 | 39 | 1012.3 |
| 20260906221547 | 37 | 19 | 4.8 | 16.1 | 0.00 | 0.00 | 0.00 | 38 | 1012.2 |
| 20260906221027 | 36 | 55 | 4.8 | 25.7 | 0.00 | 0.00 | 0.00 | 39 | 1012.2 |
| 20260906220533 | 37 | 91 | 4.8 | 25.7 | 0.00 | 0.00 | 0.00 | 41 | 1012.2 |
| 20260906220046 | 36 | 103 | 8.0 | 20.9 | 0.00 | 0.00 | 0.00 | 40 | 1012.2 |
| 20260906215531 | 37 | 116 | 6.4 | 20.9 | 0.00 | 0.00 | 0.00 | 38 | 1012.2 |
| 20260906215028 | 37 | 109 | 8.0 | 20.9 | 0.00 | 0.00 | 0.00 | 39 | 1012.2 |
| 20260906214552 | 37 | 62 | 4.8 | 19.3 | 0.00 | 0.00 | 0.00 | 39 | 1012.3 |
| 20260906214028 | 37 | 161 | 6.4 | 19.3 | 0.00 | 0.00 | 0.00 | 38 | 1012.3 |
| 20260906213528 | 37 | 114 | 4.8 | 17.7 | 0.00 | 0.00 | 0.00 | 38 | 1012.4 |
| 20260906213051 | 37 | 50 | 4.8 | 22.5 | 0.00 | 0.00 | 0.00 | 39 | 1012.4 |
| 20260906212527 | 37 | 31 | 4.8 | 25.7 | 0.00 | 0.00 | 0.00 | 39 | 1012.4 |
| 20260906212028 | 37 | 117 | 12.9 | 25.7 | 0.00 | 0.00 | 0.00 | 39 | 1012.6 |
| 20260906211549 | 37 | 108 | 6.4 | 22.5 | 0.00 | 0.00 | 0.00 | 40 | 1012.6 |
| 20260906211029 | 37 | 179 | 6.4 | 22.5 | 0.00 | 0.00 | 0.00 | 38 | 1012.8 |
| 20260906210527 | 37 | 177 | 6.4 | 17.7 | 0.00 | 0.00 | 0.00 | 38 | 1012.9 |
| 20260906210051 | 37 | 38 | 4.8 | 17.7 | 0.00 | 0.00 | 0.00 | 38 | 1012.9 |
| 20260906205528 | 37 | 113 | 6.4 | 16.1 | 0.00 | 0.00 | 0.00 | 38 | 1013.1 |
| 20260906205027 | 37 | 24 | 3.2 | 17.7 | 0.00 | 0.00 | 0.00 | 40 | 1013.1 |
| 20260906204601 | 37 | 80 | 6.4 | 17.7 | 0.00 | 0.00 | 0.00 | 39 | 1013.2 |
| 20260906204027 | 37 | 103 | 6.4 | 19.3 | 0.00 | 0.00 | 0.00 | 39 | 1013.2 |
| 20260906203529 | 37 | 32 | 6.4 | 19.3 | 0.00 | 0.00 | 0.00 | 40 | 1013.3 |
| 20260906203042 | 37 | 173 | 8.0 | 19.3 | 0.00 | 0.00 | 0.00 | 39 | 1013.2 |
| 20260906202528 | 37 | 46 | 3.2 | 24.1 | 0.00 | 0.00 | 0.00 | 41 | 1013.4 |
| 20260906202028 | 36 | 131 | 8.0 | 24.1 | 0.00 | 0.00 | 0.00 | 41 | 1013.5 |
| 20260906201604 | 36 | 167 | 6.4 | 16.1 | 0.00 | 0.00 | 0.00 | 41 | 1013.6 |
| 20260906201029 | 36 | 59 | 8.0 | 16.1 | 0.00 | 0.00 | 0.00 | 41 | 1013.6 |
| 20260906200530 | 36 | 0 | 3.2 | 19.3 | 0.00 | 0.00 | 0.00 | 42 | 1013.7 |
| 20260906200046 | 36 | 67 | 4.8 | 19.3 | 0.00 | 0.00 | 0.00 | 42 | 1013.7 |
| 20260906195529 | 37 | 146 | 6.4 | 19.3 | 0.00 | 0.00 | 0.00 | 42 | 1013.9 |
| 20260906195027 | 36 | 46 | 3.2 | 22.5 | 0.00 | 0.00 | 0.00 | 44 | 1013.8 |
| 20260906194545 | 36 | 84 | 8.0 | 22.5 | 0.00 | 0.00 | 0.00 | 43 | 1013.9 |
| 20260906194028 | 36 | 65 | 3.2 | 17.7 | 0.00 | 0.00 | 0.00 | 44 | 1013.9 |
| 20260906193528 | 36 | 85 | 6.4 | 17.7 | 0.00 | 0.00 | 0.00 | 45 | 1014.0 |
| 20260906193044 | 35 | 61 | 3.2 | 19.3 | 0.00 | 0.00 | 0.00 | 46 | 1014.1 |
| 20260906192528 | 36 | 115 | 6.4 | 19.3 | 0.00 | 0.00 | 0.00 | 45 | 1014.1 |
| 20260906192028 | 36 | 163 | 3.2 | 17.7 | 0.00 | 0.00 | 0.00 | 45 | 1014.1 |
| 20260906191551 | 36 | 76 | 6.4 | 20.9 | 0.00 | 0.00 | 0.00 | 45 | 1014.2 |
| 20260906191029 | 36 | 175 | 9.7 | 20.9 | 0.00 | 0.00 | 0.00 | 45 | 1014.3 |
| 20260906190528 | 35 | 68 | 4.8 | 17.7 | 0.00 | 0.00 | 0.00 | 46 | 1014.4 |
| 20260906190050 | 35 | 119 | 6.4 | 20.9 | 0.00 | 0.00 | 0.00 | 46 | 1014.4 |
| 20260906185528 | 35 | 207 | 9.7 | 20.9 | 0.00 | 0.00 | 0.00 | 46 | 1014.5 |
| 20260906185028 | 35 | 55 | 4.8 | 16.1 | 0.00 | 0.00 | 0.00 | 46 | 1014.5 |
| 20260906184547 | 35 | 64 | 4.8 | 22.5 | 0.00 | 0.00 | 0.00 | 47 | 1014.6 |
| 20260906184028 | 35 | 46 | 6.4 | 22.5 | 0.00 | 0.00 | 0.00 | 46 | 1014.7 |
| 20260906183531 | 35 | 95 | 6.4 | 22.5 | 0.00 | 0.00 | 0.00 | 47 | 1014.6 |
| 20260906183047 | 35 | 146 | 8.0 | 20.9 | 0.00 | 0.00 | 0.00 | 48 | 1014.7 |
| 20260906182527 | 35 | 71 | 6.4 | 17.7 | 0.00 | 0.00 | 0.00 | 47 | 1014.7 |
| 20260906182030 | 35 | 62 | 8.0 | 19.3 | 0.00 | 0.00 | 0.00 | 47 | 1014.8 |
| 20260906181554 | 34 | 138 | 8.0 | 22.5 | 0.00 | 0.00 | 0.00 | 48 | 1014.8 |
| 20260906181027 | 34 | 172 | 4.8 | 22.5 | 0.00 | 0.00 | 0.00 | 48 | 1015.0 |
| 20260906180544 | 35 | 57 | 6.4 | 20.9 | 0.00 | 0.00 | 0.00 | 47 | 1015.0 |
| 20260906175529 | 34 | 43 | 8.0 | 25.7 | 0.00 | 0.00 | 0.00 | 47 | 1015.1 |
| 20260906175026 | 34 | 76 | 11.3 | 25.7 | 0.00 | 0.00 | 0.00 | 48 | 1015.1 |
| 20260906174552 | 34 | 110 | 8.0 | 19.3 | 0.00 | 0.00 | 0.00 | 48 | 1015.2 |
| 20260906174028 | 33 | 101 | 3.2 | 17.7 | 0.00 | 0.00 | 0.00 | 50 | 1015.3 |
| 20260906173527 | 34 | 175 | 6.4 | 17.7 | 0.00 | 0.00 | 0.00 | 50 | 1015.4 |
| 20260906173045 | 33 | 163 | 4.8 | 14.5 | 0.00 | 0.00 | 0.00 | 51 | 1015.5 |
| 20260906172530 | 33 | 118 | 3.2 | 19.3 | 0.00 | 0.00 | 0.00 | 51 | 1015.6 |
| 20260906172027 | 33 | 112 | 4.8 | 19.3 | 0.00 | 0.00 | 0.00 | 51 | 1015.6 |
| 20260906171552 | 33 | 33 | 6.4 | 19.3 | 0.00 | 0.00 | 0.00 | 52 | 1015.7 |
| 20260906171027 | 33 | 42 | 6.4 | 17.7 | 0.00 | 0.00 | 0.00 | 52 | 1015.7 |
| 20260906170528 | 33 | 79 | 4.8 | 20.9 | 0.00 | 0.00 | 0.00 | 55 | 1015.7 |
| 20260906170051 | 32 | 148 | 9.7 | 20.9 | 0.00 | 0.00 | 0.00 | 55 | 1015.8 |
| 20260906165526 | 32 | 158 | 6.4 | 19.3 | 0.00 | 0.00 | 0.00 | 54 | 1015.8 |
| 20260906165025 | 33 | 46 | 8.0 | 19.3 | 0.00 | 0.00 | 0.00 | 54 | 1015.9 |
| 20260906164549 | 33 | 63 | 3.2 | 16.1 | 0.00 | 0.00 | 0.00 | 54 | 1015.9 |
| 20260906164028 | 32 | 84 | 4.8 | 12.9 | 0.00 | 0.00 | 0.00 | 55 | 1016.0 |
| 20260906163525 | 32 | 151 | 4.8 | 12.9 | 0.00 | 0.00 | 0.00 | 56 | 1016.1 |
| 20260906163045 | 32 | 161 | 3.2 | 22.5 | 0.00 | 0.00 | 0.00 | 58 | 1016.1 |
| 20260906162532 | 32 | 179 | 8.0 | 22.5 | 0.00 | 0.00 | 0.00 | 58 | 1016.0 |
| 20260906162027 | 32 | 123 | 3.2 | 12.9 | 0.00 | 0.00 | 0.00 | 58 | 1016.0 |
| 20260906161557 | 32 | 74 | 1.6 | 14.5 | 0.00 | 0.00 | 0.00 | 59 | 1015.9 |
| 20260906161028 | 32 | 58 | 3.2 | 14.5 | 0.00 | 0.00 | 0.00 | 58 | 1015.9 |
| 20260906160528 | 31 | 57 | 4.8 | 14.5 | 0.00 | 0.00 | 0.00 | 59 | 1015.9 |
| 20260906160048 | 31 | 145 | 1.6 | 19.3 | 0.00 | 0.00 | 0.00 | 61 | 1015.9 |
| 20260906155529 | 31 | 85 | 3.2 | 19.3 | 0.00 | 0.00 | 0.00 | 60 | 1016.0 |
| 20260906155027 | 31 | 31 | 4.8 | 12.9 | 0.00 | 0.00 | 0.00 | 61 | 1015.9 |
| 20260906154557 | 31 | 71 | 4.8 | 12.9 | 0.00 | 0.00 | 0.00 | 62 | 1015.9 |
| 20260906154027 | 31 | 47 | 3.2 | 12.9 | 0.00 | 0.00 | 0.00 | 64 | 1015.9 |
| 20260906153527 | 31 | 73 | 3.2 | 17.7 | 0.00 | 0.00 | 0.00 | 63 | 1015.8 |
| 20260906153052 | 31 | 73 | 4.8 | 17.7 | 0.00 | 0.00 | 0.00 | 64 | 1015.7 |
| 20260906152529 | 31 | 58 | 4.8 | 17.7 | 0.00 | 0.00 | 0.00 | 66 | 1015.7 |
| 20260906152027 | 30 | 0 | 4.8 | 12.9 | 0.00 | 0.00 | 0.00 | 66 | 1015.6 |
| 20260906151540 | 30 | 80 | 3.2 | 11.3 | 0.00 | 0.00 | 0.00 | 67 | 1015.6 |
| 20260906151028 | 30 | 50 | 1.6 | 12.9 | 0.00 | 0.00 | 0.00 | 67 | 1015.6 |
| 20260906150527 | 30 | 0 | 4.8 | 12.9 | 0.00 | 0.00 | 0.00 | 68 | 1015.5 |
| 20260906150100 | 30 | 0 | 1.6 | 12.9 | 0.00 | 0.00 | 0.00 | 68 | 1015.6 |
| 20260906145528 | 30 | 34 | 4.8 | 12.9 | 0.00 | 0.00 | 0.00 | 69 | 1015.5 |
| 20260906145028 | 30 | 57 | 3.2 | 8.0 | 0.00 | 0.00 | 0.00 | 70 | 1015.6 |
| 20260906144546 | 30 | 88 | 1.6 | 9.7 | 0.00 | 0.00 | 0.00 | 70 | 1015.5 |
| 20260906144027 | 29 | 69 | 3.2 | 9.7 | 0.00 | 0.00 | 0.00 | 71 | 1015.5 |
| 20260906143528 | 29 | 45 | 4.8 | 8.0 | 0.00 | 0.00 | 0.00 | 71 | 1015.5 |
| 20260906143047 | 28 | 71 | 0.0 | 8.0 | 0.00 | 0.00 | 0.00 | 72 | 1015.6 |
| 20260906142533 | 28 | 74 | 3.2 | 6.4 | 0.00 | 0.00 | 0.00 | 73 | 1015.7 |
| 20260906142028 | 28 | 0 | 1.6 | 6.4 | 0.00 | 0.00 | 0.00 | 72 | 1015.7 |
| 20260906141555 | 28 | 0 | 0.0 | 6.4 | 0.00 | 0.00 | 0.00 | 72 | 1015.7 |
| 20260906141028 | 28 | 86 | 1.6 | 6.4 | 0.00 | 0.00 | 0.00 | 73 | 1015.7 |
| 20260906140528 | 28 | 86 | 3.2 | 6.4 | 0.00 | 0.00 | 0.00 | 73 | 1015.6 |
| 20260906140058 | 28 | 86 | 1.6 | 6.4 | 0.00 | 0.00 | 0.00 | 74 | 1015.5 |
| 20260906135528 | 28 | 0 | 1.6 | 6.4 | 0.00 | 0.00 | 0.00 | 75 | 1015.5 |
| 20260906135027 | 28 | 86 | 1.6 | 6.4 | 0.00 | 0.00 | 0.00 | 75 | 1015.4 |
| 20260906134546 | 28 | 86 | 1.6 | 9.7 | 0.00 | 0.00 | 0.00 | 76 | 1015.6 |
| 20260906134028 | 27 | 86 | 4.8 | 9.7 | 0.00 | 0.00 | 0.00 | 76 | 1015.4 |
| 20260906133527 | 27 | 51 | 1.6 | 6.4 | 0.00 | 0.00 | 0.00 | 77 | 1015.4 |
| 20260906133047 | 27 | 51 | 1.6 | 6.4 | 0.00 | 0.00 | 0.00 | 78 | 1015.6 |
| 20260906132527 | 27 | 51 | 3.2 | 6.4 | 0.00 | 0.00 | 0.00 | 79 | 1015.6 |
| 20260906132024 | 27 | 41 | 1.6 | 4.8 | 0.00 | 0.00 | 0.00 | 80 | 1015.6 |
| 20260906131600 | 26 | 70 | 1.6 | 6.4 | 0.00 | 0.00 | 0.00 | 81 | 1015.6 |
| 20260906131028 | 26 | 70 | 1.6 | 8.0 | 0.00 | 0.00 | 0.00 | 81 | 1015.5 |
| 20260906130527 | 26 | 70 | 1.6 | 8.0 | 0.00 | 0.00 | 0.00 | 82 | 1015.6 |
| 20260906130056 | 26 | 70 | 3.2 | 6.4 | 0.00 | 0.00 | 0.00 | 82 | 1015.5 |
| 20260906125528 | 26 | 67 | 3.2 | 6.4 | 0.00 | 0.00 | 0.00 | 83 | 1015.4 |
| 20260906125028 | 26 | 67 | 1.6 | 6.4 | 0.00 | 0.00 | 0.00 | 83 | 1015.4 |
| 20260906124546 | 25 | 67 | 1.6 | 6.4 | 0.00 | 0.00 | 0.00 | 83 | 1015.3 |
| 20260906124028 | 25 | 160 | 0.0 | 6.4 | 0.00 | 0.00 | 0.00 | 83 | 1015.4 |
| 20260906123529 | 25 | 160 | 1.6 | 6.4 | 0.00 | 0.00 | 0.00 | 83 | 1015.2 |
| 20260906123050 | 25 | 160 | 1.6 | 8.0 | 0.00 | 0.00 | 0.00 | 83 | 1015.2 |
| 20260906122529 | 25 | 160 | 1.6 | 8.0 | 0.00 | 0.00 | 0.00 | 83 | 1015.2 |
| 20260906122026 | 25 | 160 | 1.6 | 8.0 | 0.00 | 0.00 | 0.00 | 83 | 1015.1 |
| 20260906121555 | 25 | 160 | 0.0 | 6.4 | 0.00 | 0.00 | 0.00 | 83 | 1015.1 |
| 20260906121026 | 25 | 0 | 1.6 | 6.4 | 0.00 | 0.00 | 0.00 | 83 | 1015.0 |
| 20260906120525 | 25 | 160 | 0.0 | 3.2 | 0.00 | 0.00 | 0.00 | 83 | 1015.0 |
| 20260906120041 | 25 | 0 | 0.0 | 3.2 | 0.00 | 0.00 | 0.00 | 83 | 1014.9 |
| 20260906115526 | 25 | 160 | 1.6 | 3.2 | 0.00 | 0.00 | 0.00 | 83 | 1014.9 |
| 20260906115028 | 25 | 160 | 0.0 | 3.2 | 0.00 | 0.00 | 0.00 | 83 | 1014.9 |
| 20260906114559 | 25 | 0 | 0.0 | 3.2 | 0.00 | 0.00 | 0.00 | 83 | 1014.8 |
| 20260906114027 | 25 | 0 | 0.0 | 3.2 | 0.00 | 0.00 | 0.00 | 83 | 1014.9 |
| 20260906113528 | 25 | 160 | 0.0 | 4.8 | 0.00 | 0.00 | 0.00 | 83 | 1014.7 |
| 20260906113046 | 25 | 160 | 0.0 | 6.4 | 0.00 | 0.00 | 0.00 | 83 | 1014.7 |
| 20260906112525 | 25 | 160 | 0.0 | 6.4 | 0.00 | 0.00 | 0.00 | 83 | 1014.6 |
| 20260906112031 | 25 | 160 | 0.0 | 3.2 | 0.00 | 0.00 | 0.00 | 82 | 1014.5 |
| 20260906111548 | 25 | 0 | 0.0 | 3.2 | 0.00 | 0.00 | 0.00 | 82 | 1014.5 |
| 20260906111027 | 25 | 0 | 0.0 | 3.2 | 0.00 | 0.00 | 0.00 | 82 | 1014.6 |
| 20260906110528 | 25 | 0 | 0.0 | 3.2 | 0.00 | 0.00 | 0.00 | 82 | 1014.5 |
| 20260906110042 | 25 | 160 | 0.0 | 1.6 | 0.00 | 0.00 | 0.00 | 82 | 1014.5 |
| 20260906105528 | 25 | 0 | 0.0 | 3.2 | 0.00 | 0.00 | 0.00 | 82 | 1014.4 |
| 20260906105028 | 25 | 0 | 0.0 | 4.8 | 0.00 | 0.00 | 0.00 | 83 | 1014.4 |
| 20260906104548 | 25 | 0 | 0.0 | 6.4 | 0.00 | 0.00 | 0.00 | 82 | 1014.3 |
| 20260906104028 | 25 | 160 | 0.0 | 6.4 | 0.00 | 0.00 | 0.00 | 82 | 1014.3 |
| 20260906103527 | 25 | 0 | 0.0 | 3.2 | 0.00 | 0.00 | 0.00 | 82 | 1014.3 |
| 20260906103050 | 25 | 160 | 0.0 | 1.6 | 0.00 | 0.00 | 0.00 | 82 | 1014.4 |
| 20260906102533 | 25 | 0 | 0.0 | 0.0 | 0.00 | 0.00 | 0.00 | 82 | 1014.4 |
| 20260906102028 | 25 | 0 | 0.0 | 0.0 | 0.00 | 0.00 | 0.00 | 81 | 1014.3 |
| 20260906101546 | 25 | 0 | 0.0 | 0.0 | 0.00 | 0.00 | 0.00 | 81 | 1014.3 |
| 20260906101030 | 26 | 0 | 0.0 | 0.0 | 0.00 | 0.00 | 0.00 | 81 | 1014.3 |
| 20260906100528 | 26 | 0 | 0.0 | 0.0 | 0.00 | 0.00 | 0.00 | 81 | 1014.2 |
| 20260906100056 | 26 | 0 | 0.0 | 0.0 | 0.00 | 0.00 | 0.00 | 81 | 1014.2 |
| 20260906095525 | 26 | 0 | 0.0 | 0.0 | 0.00 | 0.00 | 0.00 | 81 | 1014.2 |
| 20260906095030 | 26 | 0 | 0.0 | 0.0 | 0.00 | 0.00 | 0.00 | 80 | 1014.3 |
| 20260906094551 | 26 | 0 | 0.0 | 0.0 | 0.00 | 0.00 | 0.00 | 80 | 1014.2 |
| 20260906094028 | 26 | 0 | 0.0 | 0.0 | 0.00 | 0.00 | 0.00 | 80 | 1014.1 |
| 20260906093529 | 26 | 0 | 0.0 | 0.0 | 0.00 | 0.00 | 0.00 | 79 | 1014.0 |
| 20260906093047 | 26 | 0 | 0.0 | 0.0 | 0.00 | 0.00 | 0.00 | 79 | 1013.9 |
| 20260906092525 | 26 | 0 | 0.0 | 1.6 | 0.00 | 0.00 | 0.00 | 78 | 1013.9 |
| 20260906092028 | 26 | 0 | 0.0 | 3.2 | 0.00 | 0.00 | 0.00 | 77 | 1013.8 |
| 20260906091541 | 26 | 0 | 0.0 | 3.2 | 0.00 | 0.00 | 0.00 | 77 | 1013.7 |
| 20260906091025 | 27 | 160 | 0.0 | 6.4 | 0.00 | 0.00 | 0.00 | 77 | 1013.7 |
| 20260906090529 | 27 | 160 | 0.0 | 8.0 | 0.00 | 0.00 | 0.00 | 77 | 1013.7 |
| 20260906090057 | 27 | 160 | 3.2 | 8.0 | 0.00 | 0.00 | 0.00 | 77 | 1013.7 |
| 20260906085529 | 27 | 160 | 3.2 | 9.7 | 0.00 | 0.00 | 0.00 | 77 | 1013.6 |
| 20260906085029 | 27 | 160 | 3.2 | 12.9 | 0.00 | 0.00 | 0.00 | 76 | 1013.7 |
| 20260906084551 | 27 | 167 | 3.2 | 12.9 | 0.00 | 0.00 | 0.00 | 77 | 1013.6 |
| 20260906084029 | 27 | 216 | 3.2 | 12.9 | 0.00 | 0.00 | 0.00 | 76 | 1013.6 |
| 20260906083530 | 27 | 159 | 4.8 | 12.9 | 0.00 | 0.00 | 0.00 | 76 | 1013.6 |
| 20260906083046 | 27 | 139 | 3.2 | 12.9 | 0.00 | 0.00 | 0.00 | 75 | 1013.6 |
| 20260906082528 | 27 | 171 | 4.8 | 12.9 | 0.00 | 0.00 | 0.00 | 75 | 1013.6 |
| 20260906082030 | 27 | 174 | 3.2 | 9.7 | 0.00 | 0.00 | 0.00 | 75 | 1013.6 |
| 20260906081546 | 27 | 177 | 4.8 | 9.7 | 0.00 | 0.00 | 0.00 | 76 | 1013.5 |
| 20260906081029 | 27 | 186 | 4.8 | 9.7 | 0.00 | 0.00 | 0.00 | 75 | 1013.5 |
| 20260906080530 | 27 | 157 | 4.8 | 9.7 | 0.00 | 0.00 | 0.00 | 75 | 1013.7 |
| 20260906080057 | 27 | 162 | 4.8 | 11.3 | 0.00 | 0.00 | 0.00 | 74 | 1013.8 |
| 20260906075528 | 27 | 143 | 4.8 | 12.9 | 0.00 | 0.00 | 0.00 | 74 | 1013.8 |
| 20260906075028 | 27 | 126 | 3.2 | 12.9 | 0.00 | 0.00 | 0.00 | 74 | 1013.8 |
| 20260906074554 | 27 | 180 | 4.8 | 12.9 | 0.00 | 0.00 | 0.00 | 74 | 1013.8 |
| 20260906074028 | 27 | 159 | 3.2 | 9.7 | 0.00 | 0.00 | 0.00 | 74 | 1013.7 |
| 20260906073528 | 27 | 161 | 3.2 | 8.0 | 0.00 | 0.00 | 0.00 | 74 | 1013.7 |
| 20260906073045 | 27 | 161 | 3.2 | 8.0 | 0.00 | 0.00 | 0.00 | 74 | 1013.8 |
| 20260906072529 | 27 | 192 | 1.6 | 6.4 | 0.00 | 0.00 | 0.00 | 74 | 1013.6 |
| 20260906072029 | 27 | 0 | 1.6 | 8.0 | 0.00 | 0.00 | 0.00 | 73 | 1013.6 |
| 20260906071553 | 27 | 192 | 1.6 | 9.7 | 0.00 | 0.00 | 0.00 | 73 | 1013.7 |
| 20260906071029 | 27 | 192 | 3.2 | 9.7 | 0.00 | 0.00 | 0.00 | 73 | 1013.8 |
| 20260906070530 | 27 | 187 | 4.8 | 17.7 | 0.00 | 0.00 | 0.00 | 72 | 1013.9 |
| 20260906070054 | 27 | 208 | 4.8 | 17.7 | 0.00 | 0.00 | 0.00 | 72 | 1014.0 |
| 20260906065528 | 28 | 151 | 4.8 | 11.3 | 0.00 | 0.00 | 0.00 | 71 | 1013.9 |
| 20260906065028 | 28 | 103 | 4.8 | 11.3 | 0.00 | 0.00 | 0.00 | 71 | 1014.0 |
| 20260906064551 | 28 | 176 | 3.2 | 11.3 | 0.00 | 0.00 | 0.00 | 70 | 1014.1 |
| 20260906064028 | 28 | 152 | 4.8 | 11.3 | 0.00 | 0.00 | 0.00 | 70 | 1014.1 |
| 20260906063528 | 28 | 158 | 4.8 | 11.3 | 0.00 | 0.00 | 0.00 | 70 | 1014.0 |
| 20260906063047 | 28 | 158 | 1.6 | 12.9 | 0.00 | 0.00 | 0.00 | 69 | 1014.1 |
| 20260906062527 | 28 | 150 | 4.8 | 12.9 | 0.00 | 0.00 | 0.00 | 69 | 1013.9 |
| 20260906062029 | 28 | 0 | 3.2 | 11.3 | 0.00 | 0.00 | 0.00 | 68 | 1013.9 |
| 20260906061558 | 28 | 165 | 3.2 | 11.3 | 0.00 | 0.00 | 0.00 | 68 | 1014.1 |
| 20260906061028 | 28 | 160 | 3.2 | 12.9 | 0.00 | 0.00 | 0.00 | 68 | 1014.0 |
| 20260906060529 | 28 | 161 | 4.8 | 12.9 | 0.00 | 0.00 | 0.00 | 68 | 1014.1 |
| 20260906060055 | 28 | 167 | 6.4 | 12.9 | 0.00 | 0.00 | 0.00 | 67 | 1014.1 |
| 20260906055528 | 28 | 148 | 3.2 | 16.1 | 0.00 | 0.00 | 0.00 | 67 | 1014.0 |
| 20260906055028 | 28 | 186 | 6.4 | 16.1 | 0.00 | 0.00 | 0.00 | 67 | 1014.0 |
| 20260906054605 | 28 | 175 | 4.8 | 16.1 | 0.00 | 0.00 | 0.00 | 67 | 1014.0 |
| 20260906054028 | 28 | 148 | 3.2 | 16.1 | 0.00 | 0.00 | 0.00 | 66 | 1014.0 |
| 20260906053528 | 28 | 162 | 4.8 | 11.3 | 0.00 | 0.00 | 0.00 | 66 | 1014.2 |
| 20260906053045 | 28 | 142 | 4.8 | 12.9 | 0.00 | 0.00 | 0.00 | 66 | 1014.0 |
| 20260906052529 | 28 | 150 | 4.8 | 12.9 | 0.00 | 0.00 | 0.00 | 66 | 1013.9 |
| 20260906052028 | 28 | 207 | 6.4 | 11.3 | 0.00 | 0.00 | 0.00 | 66 | 1013.8 |
| 20260906051544 | 28 | 188 | 4.8 | 9.7 | 0.00 | 0.00 | 0.00 | 65 | 1013.9 |
| 20260906051028 | 29 | 225 | 4.8 | 14.5 | 0.00 | 0.00 | 0.00 | 65 | 1013.9 |
| 20260906050527 | 29 | 180 | 4.8 | 14.5 | 0.00 | 0.00 | 0.00 | 64 | 1014.0 |
| 20260906050044 | 29 | 165 | 4.8 | 12.9 | 0.00 | 0.00 | 0.00 | 64 | 1013.9 |
| 20260906045528 | 29 | 157 | 6.4 | 14.5 | 0.00 | 0.00 | 0.00 | 64 | 1013.9 |
| 20260906045028 | 29 | 163 | 4.8 | 16.1 | 0.00 | 0.00 | 0.00 | 64 | 1013.9 |
| 20260906044549 | 29 | 158 | 8.0 | 16.1 | 0.00 | 0.00 | 0.00 | 64 | 1013.9 |
| 20260906044028 | 29 | 160 | 6.4 | 16.1 | 0.00 | 0.00 | 0.00 | 64 | 1014.0 |
| 20260906043527 | 29 | 163 | 6.4 | 19.3 | 0.00 | 0.00 | 0.00 | 64 | 1014.0 |
| 20260906043045 | 29 | 169 | 8.0 | 19.3 | 0.00 | 0.00 | 0.00 | 64 | 1014.0 |
| 20260906042527 | 30 | 161 | 4.8 | 17.7 | 0.00 | 0.00 | 0.00 | 64 | 1014.1 |
| 20260906042028 | 30 | 189 | 3.2 | 17.7 | 0.00 | 0.00 | 0.00 | 63 | 1013.9 |
| 20260906041545 | 30 | 158 | 6.4 | 17.7 | 0.00 | 0.00 | 0.00 | 63 | 1014.0 |
| 20260906041025 | 30 | 122 | 4.8 | 14.5 | 0.00 | 0.00 | 0.00 | 63 | 1014.0 |
| 20260906040528 | 30 | 173 | 4.8 | 14.5 | 0.00 | 0.00 | 0.00 | 63 | 1013.9 |
| 20260906040048 | 30 | 136 | 6.4 | 14.5 | 0.00 | 0.00 | 0.00 | 63 | 1013.9 |
| 20260906035527 | 30 | 162 | 4.8 | 19.3 | 0.00 | 0.00 | 0.00 | 63 | 1013.9 |
| 20260906035027 | 30 | 178 | 6.4 | 20.9 | 0.00 | 0.00 | 0.00 | 63 | 1013.9 |
| 20260906034553 | 30 | 159 | 8.0 | 20.9 | 0.00 | 0.00 | 0.00 | 62 | 1013.8 |
| 20260906034024 | 30 | 173 | 9.7 | 17.7 | 0.00 | 0.00 | 0.00 | 63 | 1013.9 |
| 20260906033525 | 30 | 169 | 6.4 | 17.7 | 0.00 | 0.00 | 0.00 | 62 | 1013.8 |
| 20260906033046 | 30 | 142 | 4.8 | 17.7 | 0.00 | 0.00 | 0.00 | 62 | 1013.8 |
| 20260906032524 | 30 | 142 | 6.4 | 17.7 | 0.00 | 0.00 | 0.00 | 62 | 1013.9 |
| 20260906032031 | 30 | 153 | 3.2 | 17.7 | 0.00 | 0.00 | 0.00 | 61 | 1013.9 |
| 20260906031604 | 30 | 181 | 6.4 | 19.3 | 0.00 | 0.00 | 0.00 | 61 | 1013.9 |
| 20260906031028 | 30 | 171 | 8.0 | 19.3 | 0.00 | 0.00 | 0.00 | 61 | 1014.0 |
| 20260906030528 | 30 | 164 | 9.7 | 17.7 | 0.00 | 0.00 | 0.00 | 60 | 1014.0 |
| 20260906030042 | 30 | 152 | 4.8 | 19.3 | 0.00 | 0.00 | 0.00 | 60 | 1014.0 |
| 20260906025524 | 30 | 187 | 8.0 | 22.5 | 0.00 | 0.00 | 0.00 | 60 | 1014.0 |
| 20260906025030 | 30 | 128 | 11.3 | 22.5 | 0.00 | 0.00 | 0.00 | 59 | 1013.9 |
| 20260906024557 | 30 | 157 | 9.7 | 22.5 | 0.00 | 0.00 | 0.00 | 59 | 1013.8 |
| 20260906024026 | 30 | 157 | 6.4 | 19.3 | 0.00 | 0.00 | 0.00 | 59 | 1013.7 |
| 20260906023528 | 30 | 144 | 6.4 | 20.9 | 0.00 | 0.00 | 0.00 | 59 | 1013.6 |
| 20260906023127 | 30 | 153 | 6.4 | 20.9 | 0.00 | 0.00 | 0.00 | 58 | 1013.5 |
| 20260906022528 | 30 | 161 | 9.7 | 17.7 | 0.00 | 0.00 | 0.00 | 58 | 1013.5 |
| 20260906022029 | 30 | 144 | 8.0 | 17.7 | 0.00 | 0.00 | 0.00 | 58 | 1013.5 |
| 20260906021556 | 31 | 82 | 4.8 | 12.9 | 0.00 | 0.00 | 0.00 | 58 | 1013.5 |
| 20260906021029 | 31 | 154 | 1.6 | 11.3 | 0.00 | 0.00 | 0.00 | 58 | 1013.4 |
| 20260906020531 | 31 | 0 | 1.6 | 12.9 | 0.00 | 0.00 | 0.00 | 58 | 1013.3 |
| 20260906020052 | 31 | 0 | 3.2 | 12.9 | 0.00 | 0.00 | 0.00 | 58 | 1013.3 |
| 20260906015529 | 31 | 195 | 3.2 | 11.3 | 0.00 | 0.00 | 0.00 | 57 | 1013.3 |
| 20260906015028 | 31 | 150 | 3.2 | 16.1 | 0.00 | 0.00 | 0.00 | 57 | 1013.2 |
| 20260906014547 | 31 | 99 | 1.6 | 16.1 | 0.00 | 0.00 | 0.00 | 56 | 1013.3 |
| 20260906014029 | 31 | 130 | 4.8 | 16.1 | 0.00 | 0.00 | 0.00 | 56 | 1013.3 |
| 20260906013529 | 31 | 76 | 4.8 | 12.9 | 0.00 | 0.00 | 0.00 | 55 | 1013.1 |
| 20260906013050 | 32 | 162 | 3.2 | 12.9 | 0.00 | 0.00 | 0.00 | 54 | 1013.0 |
| 20260906012528 | 32 | 102 | 6.4 | 20.9 | 0.00 | 0.00 | 0.00 | 53 | 1012.7 |
| 20260906012028 | 32 | 188 | 6.4 | 37.0 | 0.00 | 0.00 | 0.00 | 52 | 1012.6 |
| 20260906011545 | 32 | 172 | 8.0 | 37.0 | 0.00 | 0.00 | 0.00 | 51 | 1012.4 |
| 20260906011030 | 33 | 113 | 6.4 | 22.5 | 0.00 | 0.00 | 0.00 | 50 | 1012.4 |
| 20260906010529 | 33 | 81 | 11.3 | 27.4 | 0.00 | 0.00 | 0.00 | 49 | 1012.3 |
| 20260906010053 | 33 | 180 | 9.7 | 27.4 | 0.00 | 0.00 | 0.00 | 49 | 1012.3 |
| 20260906005530 | 33 | 88 | 6.4 | 17.7 | 0.00 | 0.00 | 0.00 | 48 | 1012.2 |
| 20260906005029 | 34 | 115 | 8.0 | 19.3 | 0.00 | 0.00 | 0.00 | 47 | 1012.2 |
| 20260906004555 | 34 | 136 | 4.8 | 19.3 | 0.00 | 0.00 | 0.00 | 44 | 1012.2 |
| 20260906004027 | 34 | 150 | 1.6 | 11.3 | 0.00 | 0.00 | 0.00 | 44 | 1012.1 |
| 20260906003528 | 35 | 177 | 0.0 | 6.4 | 0.00 | 0.00 | 0.00 | 44 | 1012.1 |
| 20260906003053 | 35 | 20 | 0.0 | 12.9 | 0.00 | 0.00 | 0.00 | 44 | 1012.1 |
| 20260906002527 | 35 | 117 | 3.2 | 12.9 | 0.00 | 0.00 | 0.00 | 44 | 1012.0 |
| 20260906002028 | 35 | 118 | 3.2 | 9.7 | 0.00 | 0.00 | 0.00 | 43 | 1012.0 |
| 20260906001552 | 35 | 162 | 3.2 | 11.3 | 0.00 | 0.00 | 0.00 | 43 | 1012.2 |
| 20260906001028 | 35 | 126 | 3.2 | 11.3 | 0.00 | 0.00 | 0.00 | 42 | 1012.1 |
| 20260906000529 | 35 | 156 | 3.2 | 11.3 | 0.00 | 0.00 | 0.00 | 42 | 1012.0 |
| 20260906000058 | 35 | 150 | 1.6 | 14.5 | 0.00 | 0.00 | 0.00 | 42 | 1012.1 |
| 20260905235529 | 35 | 0 | 4.8 | 14.5 | 0.00 | 0.00 | 0.00 | 42 | 1011.9 |
| 20260905235031 | 35 | 0 | 1.6 | 11.3 | 0.00 | 0.00 | 0.00 | 41 | 1011.9 |
| 20260905234551 | 36 | 0 | 3.2 | 12.9 | 0.00 | 0.00 | 0.00 | 41 | 1011.8 |
| 20260905234028 | 36 | 110 | 1.6 | 12.9 | 0.00 | 0.00 | 0.00 | 40 | 1011.7 |
| 20260905233530 | 36 | 37 | 4.8 | 12.9 | 0.00 | 0.00 | 0.00 | 41 | 1011.8 |
| 20260905233055 | 36 | 104 | 1.6 | 14.5 | 0.00 | 0.00 | 0.00 | 41 | 1011.9 |
| 20260905232528 | 36 | 92 | 3.2 | 14.5 | 0.00 | 0.00 | 0.00 | 41 | 1011.9 |
| 20260905232028 | 36 | 86 | 4.8 | 14.5 | 0.00 | 0.00 | 0.00 | 39 | 1011.9 |
| 20260905231551 | 36 | 77 | 3.2 | 17.7 | 0.00 | 0.00 | 0.00 | 40 | 1011.8 |
| 20260905231028 | 36 | 175 | 4.8 | 19.3 | 0.00 | 0.00 | 0.00 | 41 | 1011.8 |
| 20260905230528 | 36 | 179 | 6.4 | 19.3 | 0.00 | 0.00 | 0.00 | 40 | 1011.8 |